CAPE
0 0 0 0 0 0 0 0 20 0 0 2 0 615 806 618 642 842 1091 1300 1464 1059 932 1134 1008 1166 1324 1065 582 553 538 531 397 21 16 11 2 0 0 0 0 0 0 0 0 0 0 0 0 1 49 84 242 449 634 455 776 695 648 745 948 1150 1321 1564 1756 1514 1398 1230 1351 1314 1313 966 1004 362 428 318 718 1412 1688 1853 2147 2710 2537 2876 2839 3042
0 0 0 0 0 0 0 0 4 11 0 0 2 279 587 445 637 688 996 1389 1283 856 702 648 708 715 1019 1147 932 838 663 531 394 128 36 33 16 0 0 0 0 0 0 0 0 0 0 0 0 0 31 351 437 616 735 850 495 734 816 898 1004 1155 1258 1469 1566 1384 1399 1420 1298 1284 1367 1518 1126 929 551 376 1046 1378 1600 1739 2259 2368 2351 2812 2797 3035
0 0 0 0 0 0 0 0 1 27 20 1 3 2 243 572 778 1054 1709 1418 1176 927 530 644 649 564 811 902 1205 1221 1068 709 737 846 751 13 15 0 0 0 0 0 0 0 0 0 0 0 0 0 34 327 527 694 787 968 926 692 913 1007 992 1065 1172 1359 1494 1324 1379 1576 1464 1519 1357 1458 1349 1307 1248 550 1040 1362 1752 1916 2220 2455 2380 2724 2686 3015
0 0 0 0 0 0 0 0 0 23 7 2 5 1 196 877 920 746 1224 1283 1405 601 420 387 546 468 655 787 790 930 1182 1169 982 1688 1242 420 1043 209 9 0 0 0 0 0 0 0 0 0 0 0 26 234 476 840 971 1185 1045 876 1207 1250 1062 999 1079 1211 1462 2093 1470 1958 1666 1403 1388 1449 1452 1400 2673 1212 992 1346 1727 1691 2033 2562 2315 2730 2660 2913
0 0 0 0 0 0 0 0 0 8 12 2 0 5 561 720 685 630 868 1207 934 705 768 520 438 444 511 662 785 854 1062 1087 1339 1476 686 567 1022 1142 588 0 0 0 5 0 0 0 0 0 0 0 0 215 359 870 990 1280 1222 1335 1542 1440 1145 1100 1092 1001 1923 2119 2244 2325 2066 2171 2228 2737 1890 1954 1839 1630 1157 1256 1695 1479 2074 2240 2350 2480 2391 2569
0 0 0 0 0 0 0 0 0 1 7 0 8 14 229 661 743 681 928 836 708 812 762 371 385 378 515 821 724 863 945 811 1000 1214 1143 816 424 1128 1218 21 2 1 0 0 0 0 0 0 0 1 8 238 300 755 930 1223 1258 1492 1677 1611 1239 1417 1257 1346 1888 2560 2453 2535 2565 2820 2182 2250 1339 1834 1628 1418 1357 1412 1577 1424 2253 2277 2224 2449 2214 2239
0 0 0 0 0 0 0 0 0 0 0 5 2 16 423 766 716 716 702 481 395 323 659 387 77 290 686 889 840 797 923 961 957 1148 1634 1322 1047 1175 1242 393 2 17 12 1 1 3 6 6 0 17 0 208 304 567 910 1117 1238 1466 1754 1885 1402 1823 1436 1403 2409 2864 3108 2700 2822 2802 2606 1993 1798 1794 2000 1539 1539 1374 1386 1448 2343 2278 2095 2151 2052 2010
0 0 0 0 0 0 0 0 0 0 11 1 10 8 81 763 935 1118 775 369 300 317 592 509 121 291 234 471 1257 765 1028 1104 1017 973 1509 1644 1271 1170 1383 866 24 13 22 17 17 15 36 33 3 37 4 65 270 462 726 1036 1376 1494 1795 2043 1829 2065 1910 1888 2638 2752 2831 2631 2626 2651 2568 2349 2238 2213 2422 1907 2476 2910 2690 1408 2148 2058 2038 1863 1873 1599
0 0 0 0 0 0 0 0 0 0 3 17 10 6 233 282 684 760 514 480 362 468 570 406 78 185 325 977 1216 1029 858 1265 1104 1013 1411 1551 1474 1154 1507 1293 59 21 34 33 54 29 59 73 8 27 18 26 159 236 675 1119 1464 1758 2012 2108 2288 2226 1978 2286 2663 2673 2784 2727 2462 2361 2338 2453 2521 2274 2571 3072 3277 2310 3030 1842 1866 1803 1961 1812 2500 1686
0 0 0 0 0 0 0 0 0 30 4 22 21 9 1 2 108 587 406 228 230 468 443 379 335 192 417 654 934 1168 1092 1039 1000 1005 1639 1654 1660 1313 1454 1579 641 59 56 41 65 49 81 90 49 30 27 27 42 150 422 1192 1719 2002 2269 2310 2564 2534 2204 2562 2753 2598 2739 2871 2711 2203 1950 2269 2672 3064 2810 2251 1950 2011 2538 2671 1572 1704 1814 2003 2879 2022
0 0 165 0 0 0 2 2 0 0 0 9 41 17 11 16 9 2 0 4 7 0 118 383 370 136 533 730 550 744 761 796 791 834 1473 1731 1752 1603 1431 1543 1262 151 159 71 93 80 116 139 117 123 33 29 28 154 275 1670 1960 2238 2518 2494 2598 2848 2482 2624 2721 2489 2580 2645 2325 2163 1758 1721 2306 2744 2538 2281 2216 2274 2236 2674 2859 2592 1578 2471 3079 2241
0 0 0 0 0 0 0 4 5 1 12 38 31 22 10 0 2 0 5 0 0 0 0 383 402 92 49 757 624 686 701 624 524 604 1057 1644 1655 1552 1405 1407 1258 498 241 182 186 183 141 168 96 77 58 78 132 145 210 1790 2014 2289 2534 2546 2650 3060 2592 2534 2670 2525 2309 2545 2137 2348 1859 1378 1544 2648 2414 2262 2274 2149 1991 2930 2801 2927 3040 2873 2878 2415
0 0 0 0 0 0 3 0 0 0 5 39 31 12 0 10 2 2 0 0 0 0 0 1 373 118 165 972 740 717 822 835 604 471 808 1504 1652 1580 1316 1279 1198 1418 558 274 207 212 123 125 196 186 125 134 252 284 282 1592 1804 2116 2444 2568 2714 3101 2750 2429 2637 2517 2291 2338 1979 2065 1876 1320 1824 2262 2145 2488 2273 2263 2089 2922 3070 3054 3078 2754 2599 3260
0 0 0 0 0 0 0 0 0 0 0 11 26 20 4 9 7 1 0 0 0 0 0 0 2 182 475 630 856 869 761 942 842 515 716 1442 1742 1658 1503 1255 1313 1296 1203 326 235 276 208 171 276 279 360 347 308 322 422 1245 1639 1873 2236 2568 2648 3100 2963 2417 2548 2380 2323 2200 2012 2027 1714 1988 2066 1851 2120 2682 2478 2444 2460 2715 2902 3000 2965 2337 2442 2601
7 2 0 0 0 0 0 0 0 0 0 0 0 2 2 29 1 2 2 0 0 0 0 0 0 446 412 612 988 930 947 996 836 901 1163 1302 1616 1842 1927 1827 1987 1426 1300 1404 219 152 154 243 344 352 442 429 355 327 696 1276 1527 1768 2032 2429 2656 2947 3017 2544 2434 2258 2303 2116 2183 2278 1272 2210 2013 1804 1845 2482 2542 2456 2577 2927 2571 2805 2810 2237 2377 2220
0 1 19 0 0 0 0 0 0 0 0 0 10 2 0 6 17 15 14 10 1 0 0 91 320 238 622 579 956 1121 950 1001 1166 1270 1336 1272 1236 1427 1438 1531 1758 1951 1595 1720 941 120 158 321 448 454 448 490 412 399 774 1261 1440 1759 1927 2172 2496 2759 2928 2740 2394 2332 2247 2103 2032 2353 1617 1974 2140 2720 1964 2361 2694 2100 2599 2722 2758 2790 2563 2253 2375 2179
0 3 5 0 0 0 0 0 0 0 0 0 0 0 0 8 5 26 15 4 0 0 1 358 594 734 755 821 668 1001 865 915 976 1276 1202 1078 1045 1067 1087 1191 1311 1584 1662 1520 1984 542 110 113 314 496 519 505 478 324 621 1070 1342 1747 1855 2171 2325 2587 2772 2787 2441 2366 2070 2154 1869 2283 1866 2114 2024 2432 2237 2540 2534 2660 2312 2594 2525 2632 2694 2760 3280 2679
0 1 0 0 0 0 0 0 0 0 0 0 0 0 0 3 5 2 8 6 6 3 1 400 632 744 763 660 657 605 703 955 1129 1332 1304 1120 979 853 816 1008 1146 1252 1344 1332 1553 2167 806 200 195 525 414 398 310 278 618 1031 1419 1822 1810 2230 2114 2505 2441 2575 2426 2320 2043 1993 1999 2074 1924 2055 1938 2247 1940 2194 2438 2141 2452 2321 2375 2237 2430 2504 2760 2505
0 6 9 8 0 0 0 0 0 0 0 0 0 0 0 0 0 0 2 0 0 0 0 276 638 594 764 473 690 705 499 509 777 973 1103 1126 1007 1054 1061 1108 1124 1143 1226 1223 1741 1876 2042 285 241 504 423 188 191 450 724 1079 1440 1828 1907 2219 2025 2358 2300 2295 2184 2268 2019 1890 2091 1875 1957 1910 1850 1920 1700 1730 1999 1964 2191 2226 2181 1987 2313 1762 1999 2209
0 3 4 0 0 11 0 0 19 10 0 0 0 0 0 0 0 0 0 10 0 0 0 308 490 105 956 1112 563 678 530 602 904 989 1213 1336 1348 1378 1346 1180 1025 1097 1173 1268 1829 1998 1955 1077 234 430 354 149 166 236 893 1059 1539 1770 1900 2257 2031 2171 2328 2294 1943 2025 1998 1900 1967 1829 1783 1797 1660 1692 1451 1361 1537 1896 1497 1986 2124 1745 2179 1838 2315 1940
0 0 2 3 3 0 0 0 41 34 5 4 0 0 0 0 0 0 0 0 3 0 0 156 318 293 823 1490 1518 630 596 577 1006 1123 1245 1298 1413 1475 1452 1317 1054 915 941 1210 1726 1932 1682 1484 174 234 102 173 157 621 924 1109 1330 1583 1782 2029 2124 2034 2246 2179 1997 1953 2030 1817 1716 1867 1678 1698 1584 1816 1703 2215 1833 1767 1703 1770 1814 1682 1820 2028 2018 1906
0 0 0 0 2 3 8 0 2 22 15 4 6 12 0 0 0 0 0 0 0 0 0 0 1032 838 1263 1237 1113 1052 1107 1261 899 1083 1265 1250 1175 1187 1211 1182 1098 860 676 996 1777 2024 1488 1181 1275 348 613 378 213 1036 807 1056 1176 1323 1532 1757 2016 2001 2086 2059 2030 2020 1969 1855 1656 1744 1662 1771 1515 1628 1478 1696 1801 1532 1828 1816 1888 1771 1618 1846 1886 1913
0 0 0 5 7 8 0 0 0 0 0 0 0 18 6 4 10 0 0 0 0 0 0 3 407 1049 967 974 1154 1156 1026 1120 1080 1326 1342 1405 1581 1653 1604 892 958 990 1127 1407 1807 1601 1105 888 755 715 965 902 897 958 957 1514 1166 1084 1321 1498 1721 1979 1939 1799 1650 1980 1902 1860 1813 1985 1796 1761 1546 1439 1331 1228 1785 1494 1517 1643 1699 1656 1575 1482 1962 1894
38 0 0 0 11 2 0 0 0 0 0 0 0 4 19 21 15 4 0 4 0 4 0 1 345 1002 906 865 1033 1083 1052 1035 1410 1498 1519 1459 1632 1775 1371 1106 1322 1081 1194 1581 1686 1529 1099 581 751 307 556 886 1355 1611 1707 1786 2017 1345 1098 1292 1622 1597 1652 1592 1356 1529 1596 1656 1666 1576 1778 1711 1614 1333 1360 1263 1245 1397 1343 1343 1406 1502 1244 1564 1814 1606
0 14 21 5 3 19 9 0 0 0 0 0 0 0 2 10 3 0 0 96 0 415 306 525 608 695 990 1166 868 896 840 973 1333 1349 1325 1508 1626 1689 1594 1176 1303 1161 1183 1220 1594 1564 1278 765 432 291 634 1304 2016 2396 2378 2203 2536 2568 1742 2062 1541 1301 1248 1226 1088 1206 1298 1283 1297 1148 1388 1496 1606 1537 1384 1210 1170 932 1050 1166 1314 1484 1229 1172 1203 1488
0 0 0 0 11 17 17 10 2 0 0 0 19 17 64 115 127 123 25 76 144 550 737 832 895 866 782 838 673 611 881 753 946 1110 1124 1354 1550 1444 1291 1466 1502 1931 1497 1242 1423 1472 1249 845 494 836 1602 2125 2379 2342 2117 2047 2174 2219 2131 2375 2748 2360 2150 1254 1994 1069 1165 1056 1200 1007 1040 1189 1312 1426 1368 1243 1105 914 749 676 1134 1570 1520 1371 1322 1371
0 0 0 58 0 5 18 13 1 33 4 0 45 30 11 70 57 64 54 136 240 724 946 976 949 900 700 699 629 543 535 809 888 885 1250 1216 1488 1614 1659 1933 1590 1575 1406 1352 1310 1154 1076 1952 1475 2264 2119 1833 2056 1921 1844 1878 1758 1703 1754 2263 2246 2198 1747 1682 2690 2071 1023 1080 950 1066 1059 970 1064 1101 1148 1124 977 708 607 582 491 1232 1682 1645 1532 1459
0 0 0 0 6 0 196 78 33 10 2 5 6 2 2 10 10 12 26 95 254 218 570 865 763 660 574 476 418 434 479 591 753 914 1035 1346 1359 1492 1472 1556 1470 1520 1690 1500 1310 1042 1202 1514 1660 2076 1954 1514 1532 1618 1884 1972 1610 1279 1643 1822 1851 1482 1580 2027 2090 2731 2770 2012 1833 1753 1839 1525 1466 1313 778 988 860 685 504 379 306 401 1501 1610 1455 1496
0 0 0 0 0 0 0 24 4 10 0 2 0 0 4 15 9 7 58 283 315 236 196 334 331 265 474 364 300 474 708 570 740 822 933 902 1168 1319 1356 1326 1352 1390 1474 1534 1404 1132 1143 1446 1302 1589 1805 2347 1988 2029 1914 1525 1206 1076 913 918 1274 1108 1430 1885 2065 2100 2672 2551 2015 2006 1838 1903 1955 2785 3674 2823 2102 1914 2131 2557 1259 905 974 1333 1514 1412
0 0 0 0 0 0 0 0 0 0 6 2 7 0 0 4 12 129 377 391 310 268 225 418 714 559 290 344 374 540 662 762 640 755 788 623 995 1008 1120 1240 1169 1172 1244 1266 1329 1232 1041 1121 1199 1439 2031 1848 1735 1759 1617 1587 1768 1784 1585 1305 1054 1288 1461 1781 2027 1878 2223 2362 2110 1179 889 1889 3199 3251 2596 2714 3164 3318 3200 2911 2651 1891 1491 1694 1505 1322
0 1 12 0 0 0 0 0 0 0 0 1 1 0 3 8 270 307 322 268 356 289 368 379 356 368 360 359 261 609 668 756 629 927 684 586 577 638 865 973 1090 1104 931 1135 1241 1301 1214 1037 1204 1190 1419 1592 1560 1623 1482 1431 1582 1660 1516 1542 1546 1570 1638 1548 1728 1941 1938 1934 1759 1319 1073 1422 2374 2836 2201 2187 2281 2301 2588 2923 3025 2720 2173 1614 1410 1348
7 36 0 1 0 0 0 0 0 0 0 2 10 37 1 4 274 334 311 254 298 298 279 250 213 444 497 458 407 428 568 630 622 897 739 710 562 585 654 808 837 921 872 819 845 916 933 907 1031 1128 1174 1269 1062 1436 1591 1628 1710 1464 1374 1452 1808 1634 1726 1504 1723 1726 1722 1693 1428 1622 1315 1479 1895 2677 2270 1836 1860 1917 1920 2145 2389 2692 2414 2294 1673 1306
8 21 0 12 0 0 0 0 0 3 8 4 92 52 10 141 327 331 297 338 337 260 250 230 391 410 417 468 598 649 634 614 651 544 706 392 463 491 640 582 552 677 848 733 621 528 647 612 1018 1052 980 831 991 966 995 1023 1335 1459 1390 1498 1917 1845 1598 1466 1615 1675 1554 1485 1490 1570 1887 1876 1989 2280 2334 2041 1955 1697 1747 1880 1918 2039 2258 2329 1811 1504
26 88 12 18 0 1 1 3 2 4 27 152 116 15 154 58 44 401 382 395 340 490 449 517 502 572 444 616 580 587 453 532 565 469 616 665 601 528 549 471 415 494 522 571 578 470 532 734 743 789 827 815 899 850 735 685 686 624 956 1059 1051 1003 813 1208 1734 1538 1249 962 948 884 1408 1666 1779 1973 2058 2159 2072 1899 1655 1732 1919 1882 1839 2631 1842 1595
2 14 26 80 8 18 9 22 0 1 40 168 148 96 80 178 478 434 351 260 254 239 282 386 529 565 544 547 526 530 509 389 422 35 487 742 657 534 428 511 534 441 541 322 505 694 632 743 577 696 841 812 642 624 705 661 624 739 656 736 862 1028 1056 1009 1328 1378 1304 1230 998 1101 1517 1822 1645 1519 1418 1561 1627 1914 1857 1719 1684 1808 2265 2141 1666 1674
0 1 6 9 28 31 38 94 6 47 157 190 144 27 24 8 92 355 64 48 132 224 238 382 462 569 566 598 486 477 391 313 364 447 0 375 432 538 478 449 437 502 530 387 343 363 435 624 741 768 909 773 679 637 552 616 590 616 632 582 461 543 705 905 1121 1008 1118 929 902 1147 1286 1312 1445 1527 1397 1286 1267 1258 1498 1655 1845 1796 1752 1721 1670 2036
0 0 11 27 35 37 32 21 227 376 76 283 486 319 74 11 4 4 4 8 22 25 319 509 576 426 317 339 356 351 287 252 219 249 268 58 63 280 411 391 418 364 338 380 355 372 406 492 500 503 620 723 753 764 719 691 697 688 691 681 633 568 468 675 915 958 889 917 960 920 973 990 990 1063 1109 1078 985 936 939 1020 1043 1137 1470 1487 1474 1629
75 1 113 31 91 8 44 33 26 33 147 331 266 95 155 3 4 130 255 24 32 119 445 472 492 428 379 382 438 418 402 229 32 238 188 94 154 350 285 279 253 396 335 210 23 0 255 288 372 377 386 420 457 586 600 609 586 555 596 576 523 464 534 592 615 572 650 696 805 835 898 958 952 901 878 846 857 807 821 787 772 746 922 1057 1018 1214
0 0 90 0 9 18 100 68 45 13 234 184 170 212 84 19 3 2 70 117 14 319 419 401 400 440 402 434 336 310 229 170 87 49 177 108 48 4 96 230 308 290 234 210 11 0 148 254 240 147 263 283 357 349 381 377 360 357 342 346 362 381 425 522 564 497 483 586 606 630 728 813 800 839 848 853 848 802 756 716 750 751 764 752 748 882
53 102 48 0 0 0 119 34 219 364 316 388 546 295 52 53 8 0 0 154 44 549 586 620 659 584 452 362 338 274 190 189 173 141 196 258 261 186 0 58 90 194 198 179 126 5 0 0 0 0 190 317 305 241 306 359 391 412 396 412 426 454 499 542 550 480 483 498 568 591 570 138 433 447 575 682 715 698 735 729 753 799 807 761 789 814
36 246 105 44 52 41 93 288 589 531 369 186 178 75 165 138 48 2 12 20 177 604 666 665 723 702 657 628 442 174 269 202 16 116 127 116 32 0 112 47 59 0 101 118 149 1 0 0 0 0 0 88 235 310 303 256 243 243 219 247 316 366 375 456 428 375 418 459 445 407 379 389 322 343 451 490 500 504 456 479 516 605 665 665 632 669
175 228 135 161 76 96 127 453 380 80 62 62 270 183 211 351 333 72 26 26 400 698 729 785 806 725 657 475 339 229 139 43 49 4 0 0 0 0 0 0 0 0 4 53 119 132 106 103 24 41 93 207 190 42 190 202 184 180 174 180 225 307 353 386 390 357 331 328 285 284 299 361 468 472 429 362 338 332 366 475 646 441 504 506 439 398
74 29 44 84 86 58 120 134 207 330 157 330 425 310 216 324 143 61 322 412 584 723 700 694 846 754 585 374 306 189 144 114 33 0 0 0 0 0 0 0 0 0 0 0 22 0 0 0 0 0 0 90 150 146 89 97 187 221 248 240 247 258 322 358 376 359 327 272 276 281 298 341 400 429 337 259 177 169 106 264 536 389 513 367 377 329
340 469 73 48 22 116 196 237 238 302 324 308 175 151 208 218 276 421 222 448 651 800 832 694 644 764 599 438 338 237 178 109 6 0 0 0 0 0 0 0 0 0 0 0 0 0 0 0 0 0 0 0 0 0 0 116 153 156 153 217 219 272 297 326 344 340 318 299 302 302 280 286 336 323 107 114 59 42 65 12 247 261 276 448 340 165
285 498 157 186 226 246 202 178 239 406 140 210 402 328 254 268 263 282 272 284 536 766 852 796 764 801 638 606 424 333 270 139 10 0 0 0 0 0 0 0 0 0 0 0 0 0 0 0 0 0 0 0 0 0 0 0 0 18 120 142 173 229 249 263 251 81 276 283 285 286 287 226 210 51 42 235 210 8 98 118 155 228 229 17 197 211
457 630 205 207 151 179 244 402 314 198 160 106 198 287 200 148 216 249 265 327 469 674 768 841 826 886 896 621 588 401 297 140 21 0 0 0 0 0 0 0 0 0 0 0 0 0 0 0 0 0 0 0 0 0 0 0 0 0 0 0 0 0 113 201 247 247 256 254 217 201 202 241 96 0 0 0 0 0 157 236 195 224 190 162 113 112
333 282 302 300 377 114 56 264 138 292 377 420 366 334 255 190 212 350 312 380 545 667 855 1003 990 1104 929 754 711 601 495 484 527 308 0 0 0 0 0 0 0 0 0 0 0 0 0 0 0 0 0 0 0 0 0 0 0 0 0 0 0 0 0 0 0 25 0 220 213 170 108 204 200 187 100 0 0 0 18 101 156 164 194 189 165 166
311 233 129 506 597 336 641 642 277 332 523 564 488 398 286 192 159 283 488 526 663 784 757 760 1009 916 831 714 744 708 672 595 281 183 50 0 0 0 0 0 0 0 0 0 0 0 0 0 0 0 0 0 0 0 0 0 0 0 0 0 0 0 0 0 0 0 0 0 0 94 1 2 58 95 145 143 0 0 0 0 0 0 0 0 0 150
188 40 116 214 485 572 575 548 590 515 456 362 275 166 273 388 288 222 306 237 262 544 534 532 727 930 861 763 670 629 582 558 334 213 212 0 0 0 0 0 0 0 0 0 0 0 0 0 0 0 0 0 0 0 0 0 0 0 0 0 0 0 0 0 0 0 0 0 0 0 0 1 0 61 45 4 0 0 0 0 0 0 0 0 0 128
90 301 122 232 321 332 346 498 484 325 420 417 403 453 294 272 556 296 344 215 316 489 611 757 706 792 810 853 672 504 558 511 475 253 334 229 36 0 0 0 0 0 0 0 0 0 0 0 0 0 0 0 0 0 0 0 0 0 0 0 0 0 0 0 0 0 0 0 0 0 0 0 0 0 0 0 23 0 0 0 0 0 0 0 0 0
597 143 364 382 182 354 717 645 430 526 676 600 340 179 418 374 396 500 314 379 241 260 356 737 745 634 723 872 900 661 499 426 345 398 310 202 214 25 0 0 0 0 0 0 0 0 0 0 0 0 0 0 0 0 0 0 0 0 0 0 0 0 0 0 0 0 0 0 0 0 0 0 0 0 0 0 0 0 5 0 0 0 0 0 0 0
Wind_Speed
nan nan nan nan nan nan nan nan nan nan nan nan nan 10 16 18 15 12 12 17 15 17 13 14 16 18 15 14 13 11 12 12 13 nan nan nan nan nan nan nan nan nan nan nan nan nan nan nan nan nan nan nan 10 9 8 7 5 5 5 4 4 6 7 9 9 9 9 10 10 9 10 11 10 10 11 11 11 11 12 13 14 14 13 13 14 14
nan nan nan nan nan nan nan nan nan nan nan nan nan 14 18 16 13 8 14 21 16 18 14 17 19 19 16 18 18 19 17 16 18 16 nan nan nan nan nan nan nan nan nan nan nan nan nan nan nan nan nan 12 13 10 10 8 6 5 6 5 3 4 7 9 10 10 10 10 10 9 10 10 9 8 9 10 10 10 11 12 12 12 13 13 12 12
nan nan nan nan nan nan nan nan nan nan nan nan nan nan 17 19 19 19 20 20 18 21 15 13 15 18 23 26 30 37 28 19 17 19 19 nan nan nan nan nan nan nan nan nan nan nan nan nan nan nan nan 14 14 11 11 9 7 5 5 4 2 3 6 9 10 11 11 10 9 8 9 8 9 9 9 8 8 8 9 10 11 10 11 11 11 12
nan nan nan nan nan nan nan nan nan nan nan nan nan nan 17 20 19 15 13 16 15 19 12 11 15 20 26 26 27 28 21 20 22 24 21 21 23 18 nan nan nan nan nan nan nan nan nan nan nan nan nan 13 13 11 11 9 8 5 4 4 4 3 5 9 11 10 10 8 7 6 7 8 9 9 8 4 4 5 6 8 8 8 9 10 10 10
nan nan nan nan nan nan nan nan nan nan nan nan nan nan 18 12 15 16 13 16 16 17 18 17 18 18 19 20 21 23 19 19 21 25 22 22 20 21 20 nan nan nan nan nan nan nan nan nan nan nan nan 12 12 12 11 9 8 6 6 5 5 2 4 8 9 7 6 5 5 7 7 7 8 8 7 5 4 5 6 7 7 7 7 8 8 9
nan nan nan nan nan nan nan nan nan nan nan nan nan nan 11 20 16 20 21 19 15 17 16 20 18 14 14 14 15 15 18 17 21 23 23 21 20 22 22 nan nan nan nan nan nan nan nan nan nan nan nan 12 11 11 10 10 7 7 7 6 5 1 2 5 5 3 3 4 5 6 7 7 7 7 7 7 6 6 6 7 6 5 7 8 7 8
nan nan nan nan nan nan nan nan nan nan nan nan nan nan 17 22 17 21 21 16 16 14 12 12 nan 14 16 11 13 12 14 14 21 21 21 21 20 21 20 18 nan nan nan nan nan nan nan nan nan nan nan 13 10 9 9 9 8 8 8 7 5 3 1 2 3 1 1 2 5 6 6 7 7 7 8 8 7 6 7 5 4 5 7 8 6 8
nan nan nan nan nan nan nan nan nan nan nan nan nan nan nan 27 22 18 17 14 13 15 17 11 12 17 13 7 10 11 9 11 15 15 17 20 21 21 20 19 nan nan nan nan nan nan nan nan nan nan nan nan 10 8 7 8 10 9 8 7 6 5 4 3 3 2 1 0 3 5 4 5 6 6 6 6 6 6 6 4 4 5 7 8 6 6
nan nan nan nan nan nan nan nan nan nan nan nan nan nan 17 17 22 18 11 8 15 18 12 8 nan 17 14 14 12 11 8 6 9 9 12 18 21 22 19 18 nan nan nan nan nan nan nan nan nan nan nan nan 11 8 6 9 9 9 10 8 7 6 5 5 4 3 3 1 2 3 2 2 4 3 4 5 5 5 5 2 4 5 6 7 6 4
nan nan nan nan nan nan nan nan nan nan nan nan nan nan nan nan 4 11 8 9 19 20 11 5 6 13 13 15 14 9 6 7 10 11 11 16 24 23 19 19 18 nan nan nan nan nan nan nan nan nan nan nan nan 9 7 11 10 10 10 9 7 6 6 6 5 5 4 2 1 1 1 1 1 2 3 3 3 4 5 2 4 5 5 7 4 3
nan nan 20 nan nan nan nan nan nan nan nan nan nan nan nan nan nan nan nan nan nan nan 10 5 9 10 9 7 11 15 6 12 11 11 10 10 19 25 22 18 18 15 16 nan nan nan 16 18 18 15 nan nan nan 10 9 12 11 11 10 9 8 6 6 6 5 5 4 3 2 2 2 2 2 1 0 1 3 3 4 2 2 3 4 5 5 3
nan nan nan nan nan nan nan nan nan nan nan nan nan nan nan nan nan nan nan nan nan nan nan 10 12 nan nan 8 4 6 6 13 16 18 17 14 12 20 23 18 16 17 15 13 15 15 16 18 nan nan nan nan 13 12 10 12 12 11 11 10 8 7 7 6 6 6 5 4 3 3 3 3 2 2 1 1 1 1 1 2 2 3 2 4 5 4
nan nan nan nan nan nan nan nan nan nan nan nan nan nan nan nan nan nan nan nan nan nan nan nan 13 10 11 5 8 13 6 12 15 15 18 19 18 12 21 17 14 17 16 12 15 15 16 16 16 15 15 12 14 14 11 15 13 12 11 11 10 6 6 6 7 7 6 5 2 3 3 2 2 3 2 1 1 0 1 1 1 2 2 3 4 5
nan nan nan nan nan nan nan nan nan nan nan nan nan nan nan nan nan nan nan nan nan nan nan nan nan 15 11 9 8 12 15 13 16 16 18 20 19 9 12 15 14 16 18 14 14 14 14 15 15 15 15 14 16 15 13 16 15 13 11 11 11 7 6 6 6 7 7 5 3 3 4 3 2 3 3 2 1 0 1 1 1 1 2 2 3 4
nan nan nan nan nan nan nan nan nan nan nan nan nan nan nan nan nan nan nan nan nan nan nan nan nan 12 14 10 10 11 15 14 14 15 17 18 16 8 4 9 12 15 19 20 14 13 13 14 15 16 16 16 16 15 15 17 16 15 14 12 12 9 7 6 6 7 7 5 4 5 4 5 2 2 2 3 2 1 1 1 2 1 1 1 4 3
nan nan nan nan nan nan nan nan nan nan nan nan nan nan nan nan nan nan nan nan nan nan nan nan 21 18 13 12 14 15 15 13 15 15 17 15 14 12 6 3 3 7 15 21 19 12 13 15 16 16 15 15 15 15 16 17 17 17 16 15 13 10 8 8 7 8 8 7 6 6 6 5 4 3 2 3 2 2 2 3 3 2 0 1 2 4
nan nan nan nan nan nan nan nan nan nan nan nan nan nan nan nan nan nan nan nan nan nan nan 11 20 21 15 17 14 17 13 14 16 16 16 15 15 13 9 8 7 6 7 16 20 16 13 15 16 16 14 14 14 14 16 17 18 19 18 17 15 12 10 9 8 9 9 10 9 8 7 7 6 6 4 3 2 3 2 3 3 1 1 2 1 1
nan nan nan nan nan nan nan nan nan nan nan nan nan nan nan nan nan nan nan nan nan nan nan 16 17 13 18 14 9 14 14 17 16 15 15 15 15 12 9 9 8 7 4 10 17 20 17 16 16 18 16 15 16 16 17 16 18 20 19 19 18 15 13 11 10 9 10 11 12 11 10 8 8 8 5 5 4 3 4 4 4 2 2 3 3 2
nan nan nan nan nan nan nan nan nan nan nan nan nan nan nan nan nan nan nan nan nan nan nan 14 18 17 18 16 13 9 16 17 17 14 13 13 13 10 9 10 10 9 7 7 11 14 18 16 18 19 18 19 20 20 19 17 19 21 20 19 19 18 16 14 12 11 11 12 12 12 12 10 9 9 7 6 6 6 6 5 5 4 4 4 3 4
nan nan nan nan nan nan nan nan nan nan nan nan nan nan nan nan nan nan nan nan nan nan nan 13 18 14 22 18 9 10 12 16 15 15 13 13 12 10 9 10 11 10 8 9 11 14 17 18 19 21 21 22 23 24 22 19 19 21 21 20 19 19 18 17 15 15 13 12 13 13 13 12 11 10 8 9 8 8 7 7 8 7 7 5 5 4
nan nan nan nan nan nan nan nan nan nan nan nan nan nan nan nan nan nan nan nan nan nan nan 14 15 14 14 13 18 11 9 11 12 14 15 13 14 14 12 11 10 11 10 11 14 16 18 22 20 24 23 23 26 27 24 21 19 21 20 19 19 19 18 17 17 18 16 14 14 16 14 13 11 9 9 10 9 10 9 10 9 9 9 9 6 6
nan nan nan nan nan nan nan nan nan nan nan nan nan nan nan nan nan nan nan nan nan nan nan nan 19 16 14 16 19 19 16 19 20 19 16 13 14 15 14 13 11 11 12 12 18 21 25 28 26 25 24 25 26 27 24 22 20 21 20 18 18 17 16 16 16 19 18 16 15 17 16 15 13 11 11 12 11 12 11 11 11 11 11 9 8 7
nan nan nan nan nan nan nan nan nan nan nan nan nan nan nan nan nan nan nan nan nan nan nan nan 25 19 18 16 17 14 15 19 21 23 22 18 17 19 19 19 15 17 19 21 23 28 33 32 32 36 28 23 25 27 26 24 21 20 20 18 18 17 15 13 13 18 18 17 15 17 18 17 16 14 12 11 12 11 12 12 11 12 12 10 10 9
nan nan nan nan nan nan nan nan nan nan nan nan nan nan nan nan nan nan nan nan nan nan nan nan 25 22 23 18 14 12 14 16 18 22 22 23 23 22 21 32 32 28 33 31 27 27 30 28 26 29 29 22 24 27 29 28 25 21 20 20 18 16 14 12 13 15 16 16 15 16 17 18 18 15 13 11 13 12 12 12 12 12 12 13 14 12
nan nan nan nan nan nan nan nan nan nan nan nan nan nan nan nan nan nan nan nan nan 26 24 25 21 21 22 22 19 18 18 16 20 22 24 25 24 25 30 30 27 26 19 18 23 25 24 20 19 20 20 15 20 24 27 30 29 26 22 23 20 17 15 13 15 14 14 15 15 15 17 16 17 17 14 13 13 12 13 13 13 13 12 13 14 13
nan nan nan nan nan nan nan nan nan nan nan nan nan nan nan 36 38 30 nan nan 25 25 34 29 24 21 23 25 26 24 22 19 18 18 21 25 26 24 23 21 22 24 26 28 31 29 24 22 21 19 18 19 21 21 22 25 28 28 27 27 26 23 21 16 18 14 15 15 16 15 16 16 17 17 15 13 13 13 14 14 16 16 15 14 14 16
nan nan nan nan nan nan nan nan nan nan nan nan nan nan nan nan nan nan nan 29 27 28 36 34 32 30 28 28 29 26 24 20 19 16 19 25 27 25 20 21 28 31 29 29 26 22 21 18 19 21 19 20 23 22 23 23 25 27 28 30 28 27 26 24 23 21 18 18 17 16 16 17 17 18 16 15 14 14 15 15 15 17 17 17 16 18
nan nan nan nan nan nan 18 nan nan nan nan nan nan nan nan nan nan nan nan nan 33 33 37 33 35 36 32 31 31 25 19 16 18 20 22 25 27 26 25 24 28 29 29 28 27 26 25 25 26 23 22 23 24 25 27 27 29 29 28 28 28 28 28 26 25 27 24 23 22 20 20 20 22 22 19 17 15 15 16 16 15 17 18 19 19 19
nan nan nan nan nan nan nan nan nan nan nan nan nan nan nan nan nan nan nan 45 45 42 35 36 38 43 38 31 30 26 22 19 27 28 28 27 24 26 31 32 27 27 28 25 24 28 29 26 27 33 30 28 28 29 28 27 26 27 29 28 29 31 30 28 27 29 31 28 26 25 24 25 25 25 25 22 21 20 21 22 21 21 20 18 21 20
nan nan nan nan nan nan nan nan nan nan nan nan nan nan nan nan nan 45 45 48 47 43 41 38 42 49 44 38 32 30 32 33 29 25 29 33 30 27 27 29 29 29 28 23 23 25 26 26 29 31 37 35 33 33 33 30 28 27 27 27 29 30 29 28 28 30 31 33 36 37 37 34 30 29 28 29 26 25 26 26 24 24 24 22 21 21
nan nan nan nan nan nan nan nan nan nan nan nan nan nan nan nan 51 50 52 54 49 52 53 49 44 39 39 38 37 38 41 35 33 32 30 34 32 31 28 27 29 30 30 30 28 25 27 29 28 32 36 36 38 41 41 39 36 35 34 32 32 31 28 27 27 29 32 37 38 35 31 28 25 25 26 25 24 25 27 26 25 25 24 23 24 25
nan nan nan nan nan nan nan nan nan nan nan nan nan nan nan nan 45 47 47 49 51 49 48 49 48 39 35 38 36 38 38 37 32 28 26 27 30 31 29 25 26 28 29 29 28 28 31 30 28 30 30 31 34 35 35 33 31 34 35 34 33 29 26 25 23 23 27 34 38 37 33 30 25 20 19 23 23 24 25 26 26 26 24 24 25 25
nan nan nan nan nan nan nan nan nan nan nan nan nan nan nan 41 42 46 46 50 50 47 51 47 41 39 37 38 40 38 37 35 32 27 23 27 30 28 28 33 34 32 33 34 31 30 32 30 29 31 34 34 34 35 35 34 33 33 31 25 21 21 20 18 17 17 19 25 30 29 24 23 20 16 19 24 25 24 25 26 26 26 25 25 24 26
nan nan nan nan nan nan nan nan nan nan nan 26 23 nan 33 nan nan 48 47 48 50 51 45 42 41 42 45 48 47 44 42 38 36 34 32 29 32 34 34 37 36 33 31 32 32 32 37 35 32 32 35 33 30 30 34 33 32 33 33 30 30 29 25 21 18 19 19 20 23 23 21 19 19 18 20 24 26 28 27 27 27 25 25 27 28 28
nan nan nan nan nan nan nan nan nan nan nan 25 31 nan nan 36 42 42 43 45 44 49 52 52 50 50 48 48 50 49 45 42 39 nan 38 37 39 39 41 40 39 34 32 32 34 35 35 32 28 28 30 29 26 26 28 29 28 28 31 30 32 32 30 27 23 22 21 20 20 20 19 20 21 23 28 32 31 30 29 29 30 30 31 31 31 31
nan nan nan nan nan nan nan nan nan nan 21 28 29 nan nan nan nan 35 nan nan 40 43 49 52 55 53 48 47 46 46 47 42 40 43 nan 37 36 35 42 45 44 38 35 33 32 29 29 29 27 26 27 29 30 27 27 28 28 31 30 28 29 28 27 25 21 18 17 19 19 18 18 19 22 25 29 32 33 33 33 34 34 34 34 34 33 33
nan nan nan nan nan nan nan nan 15 19 nan 30 31 33 nan nan nan nan nan nan nan nan 42 47 52 52 50 46 40 41 43 44 42 44 46 nan nan 37 36 39 40 39 42 42 40 35 29 26 28 28 25 27 30 29 26 24 26 30 28 26 25 25 25 24 22 21 19 18 18 19 17 17 18 20 22 24 27 30 32 35 37 38 36 35 35 36
nan nan 7 nan nan nan nan nan nan nan 19 18 20 nan 26 nan nan 29 30 nan nan 38 38 38 41 44 45 41 35 30 36 40 nan 40 42 nan 42 44 41 38 37 37 40 44 nan nan 44 37 33 33 32 33 34 34 32 29 28 29 31 29 27 28 28 27 24 24 23 22 21 20 19 18 17 17 17 18 20 22 24 26 28 30 31 33 34 36
nan nan nan nan nan nan 8 nan nan nan 15 15 14 18 nan nan nan nan nan 31 nan 34 34 33 35 35 36 36 31 28 33 36 nan nan 38 39 nan nan nan 42 41 42 41 42 nan nan 46 40 35 37 38 38 40 40 39 37 38 40 41 40 39 36 35 32 29 27 27 25 25 25 24 22 24 24 23 22 21 20 19 19 19 22 24 28 31 34
nan 9 nan nan nan nan 8 nan 16 18 18 16 14 14 nan nan nan nan nan 30 nan 33 33 33 35 33 33 34 33 32 32 31 29 29 33 32 35 42 nan nan nan 39 40 39 41 nan nan nan nan nan 40 37 36 37 41 44 46 48 48 47 45 41 36 33 32 31 31 29 27 27 27 26 27 27 26 25 25 25 24 23 22 23 25 26 27 28
nan 9 11 nan nan nan nan 16 16 17 17 17 15 nan 16 16 nan nan nan nan 28 31 33 32 32 34 34 33 31 33 28 30 nan 31 31 29 nan nan 39 nan nan nan 37 38 38 nan nan nan nan nan nan nan 42 42 43 44 47 48 48 47 45 42 38 34 33 34 35 34 33 32 31 28 28 30 28 27 26 27 27 25 27 28 29 29 29 29
10 11 10 11 nan nan 14 18 13 nan nan nan 13 20 15 18 23 nan nan nan 27 29 30 30 31 32 35 36 35 36 37 nan nan nan nan nan nan nan nan nan nan nan nan nan 40 37 39 42 nan nan nan 47 46 nan 46 46 47 47 47 45 45 43 39 37 35 35 36 37 36 36 34 32 30 32 31 30 29 28 27 28 29 29 28 29 29 29
nan nan nan nan nan nan 15 16 14 10 9 14 15 19 21 21 18 nan 24 28 29 30 29 29 29 32 32 35 34 36 36 36 nan nan nan nan nan nan nan nan nan nan nan nan nan nan nan nan nan nan nan nan 45 44 nan nan 50 49 48 48 45 42 39 40 40 38 37 37 37 37 36 34 34 35 35 33 32 31 30 29 31 30 27 27 28 30
9 11 nan nan nan 15 16 15 14 12 12 14 18 17 14 19 17 21 24 25 25 27 28 29 29 30 32 32 33 32 32 34 nan nan nan nan nan nan nan nan nan nan nan nan nan nan nan nan nan nan nan nan nan nan nan 47 48 48 48 47 43 44 43 40 40 41 40 38 37 37 37 36 37 38 35 36 nan nan nan nan 33 33 32 31 32 33
7 13 12 14 14 16 16 16 15 16 17 17 17 17 18 19 21 22 24 24 24 25 25 27 27 29 31 31 31 31 30 31 nan nan nan nan nan nan nan nan nan nan nan nan nan nan nan nan nan nan nan nan nan nan nan nan nan nan 48 44 43 44 44 44 44 nan 41 41 40 38 37 38 39 nan nan 44 44 nan nan 40 40 39 37 nan 35 34
10 13 12 15 15 17 19 20 19 19 19 19 20 21 21 21 22 23 23 23 23 23 24 24 26 27 27 29 30 29 28 28 nan nan nan nan nan nan nan nan nan nan nan nan nan nan nan nan nan nan nan nan nan nan nan nan nan nan nan nan nan nan 43 44 43 45 45 43 41 39 38 39 nan nan nan nan nan nan 42 44 42 40 39 40 40 40
9 12 12 13 12 16 nan 14 19 19 21 21 20 21 23 22 22 22 23 22 23 23 24 24 24 24 25 26 28 29 28 27 28 29 nan nan nan nan nan nan nan nan nan nan nan nan nan nan nan nan nan nan nan nan nan nan nan nan nan nan nan nan nan nan nan nan nan 44 46 44 39 38 38 42 44 nan nan nan nan 44 44 43 42 43 42 42
10 11 13 14 12 12 13 13 18 19 18 17 18 18 21 22 22 21 21 22 23 24 23 24 23 25 25 25 25 26 26 25 25 25 nan nan nan nan nan nan nan nan nan nan nan nan nan nan nan nan nan nan nan nan nan nan nan nan nan nan nan nan nan nan nan nan nan nan nan nan nan nan nan nan 43 45 nan nan nan nan nan nan nan nan nan 39
12 nan 14 13 13 13 14 12 14 18 16 16 18 18 18 19 20 20 20 23 24 26 25 24 24 24 24 24 24 25 26 24 23 22 22 nan nan nan nan nan nan nan nan nan nan nan nan nan nan nan nan nan nan nan nan nan nan nan nan nan nan nan nan nan nan nan nan nan nan nan nan nan nan nan nan nan nan nan nan nan nan nan nan nan nan 41
nan 13 13 19 16 12 12 12 14 14 14 14 16 17 18 18 19 19 18 21 22 24 25 25 24 25 25 25 26 26 26 25 23 22 20 21 nan nan nan nan nan nan nan nan nan nan nan nan nan nan nan nan nan nan nan nan nan nan nan nan nan nan nan nan nan nan nan nan nan nan nan nan nan nan nan nan nan nan nan nan nan nan nan nan nan nan
14 13 14 16 15 12 13 17 19 20 18 16 17 16 16 19 19 19 19 18 19 21 23 24 23 23 24 23 23 25 27 26 24 23 23 20 21 nan nan nan nan nan nan nan nan nan nan nan nan nan nan nan nan nan nan nan nan nan nan nan nan nan nan nan nan nan nan nan nan nan nan nan nan nan nan nan nan nan nan nan nan nan nan nan nan nan
Wind_Direction
nan nan nan nan nan nan nan nan nan nan nan nan nan 302 283 263 244 236 249 271 272 260 251 256 238 244 252 256 261 241 235 222 206 nan nan nan nan nan nan nan nan nan nan nan nan nan nan nan nan nan nan nan 267 271 276 290 293 306 330 355 40 55 64 73 77 76 71 73 84 91 91 84 89 66 73 68 74 74 78 81 89 94 95 97 98 103
nan nan nan nan nan nan nan nan nan nan nan nan nan 247 280 270 260 265 251 266 253 246 241 242 238 243 239 246 242 233 233 227 215 208 nan nan nan nan nan nan nan nan nan nan nan nan nan nan nan nan nan 258 270 270 275 281 293 298 315 328 13 51 60 76 77 75 80 85 87 86 94 103 99 77 72 74 71 67 69 76 86 90 92 96 96 99
nan nan nan nan nan nan nan nan nan nan nan nan nan nan 256 240 241 241 244 256 251 240 229 257 254 234 231 220 218 223 216 218 217 213 201 nan nan nan nan nan nan nan nan nan nan nan nan nan nan nan nan 259 269 269 272 280 285 291 291 298 337 42 57 74 75 74 85 83 80 91 93 103 108 107 99 78 69 64 65 69 76 80 83 92 95 96
nan nan nan nan nan nan nan nan nan nan nan nan nan nan 230 257 254 233 250 263 248 241 256 274 252 225 229 232 229 231 216 206 203 205 199 208 206 208 nan nan nan nan nan nan nan nan nan nan nan nan nan 258 264 262 263 268 283 275 259 284 308 17 62 73 73 79 82 88 86 80 74 84 107 105 124 104 84 80 73 63 78 75 77 85 90 94
nan nan nan nan nan nan nan nan nan nan nan nan nan nan 253 252 233 269 274 264 253 238 270 266 237 217 228 237 241 234 220 214 210 208 201 196 203 206 206 nan nan nan nan nan nan nan nan nan nan nan nan 259 261 262 269 268 273 260 277 284 308 356 61 79 80 78 93 93 106 101 95 104 118 127 123 129 104 82 81 80 90 70 77 83 83 88
nan nan nan nan nan nan nan nan nan nan nan nan nan nan 250 251 245 257 277 283 262 250 269 277 236 221 232 253 267 244 227 225 232 224 205 200 198 203 206 nan nan nan nan nan nan nan nan nan nan nan nan 260 259 265 269 272 271 264 268 275 294 258 92 86 95 95 82 92 81 83 75 79 85 91 87 87 77 81 77 77 91 82 81 86 87 84
nan nan nan nan nan nan nan nan nan nan nan nan nan nan 283 287 278 292 297 287 269 257 276 282 nan 228 228 261 276 259 237 228 238 228 211 211 205 202 206 211 nan nan nan nan nan nan nan nan nan nan nan 262 260 263 265 274 272 269 266 271 289 242 210 140 143 146 137 100 87 72 72 75 71 68 88 88 91 76 82 86 86 77 86 91 83 79
nan nan nan nan nan nan nan nan nan nan nan nan nan nan nan 269 288 308 311 317 282 249 263 299 241 243 231 222 262 299 255 241 246 224 220 221 212 203 200 206 nan nan nan nan nan nan nan nan nan nan nan nan 263 266 264 268 274 272 269 265 261 233 236 205 203 202 224 23 82 82 75 67 71 80 88 78 104 103 96 67 73 80 78 84 90 79
nan nan nan nan nan nan nan nan nan nan nan nan nan nan 262 294 307 318 328 327 277 256 249 269 nan 228 232 234 268 300 311 300 284 264 243 236 220 206 198 200 nan nan nan nan nan nan nan nan nan nan nan nan 268 270 258 265 275 268 269 263 244 243 239 231 233 233 230 233 62 82 83 81 106 99 101 120 127 127 125 52 79 82 85 83 90 77
nan nan nan nan nan nan nan nan nan nan nan nan nan nan nan nan 248 324 336 301 264 240 224 255 284 233 221 252 263 270 305 347 336 319 286 246 228 216 205 200 198 nan nan nan nan nan nan nan nan nan nan nan nan 264 256 263 271 270 265 265 254 251 249 246 236 240 239 246 299 269 107 250 181 156 139 138 137 137 140 135 77 96 87 89 113 82
nan nan 172 nan nan nan nan nan nan nan nan nan nan nan nan nan nan nan nan nan nan nan 223 294 304 250 232 252 283 284 311 352 332 315 306 272 237 225 212 202 197 208 230 nan nan nan 249 257 268 261 nan nan nan 264 263 268 272 270 270 270 262 253 255 263 254 252 252 238 257 260 307 298 300 193 164 161 157 161 157 170 143 120 89 116 118 92
nan nan nan nan nan nan nan nan nan nan nan nan nan nan nan nan nan nan nan nan nan nan nan 295 320 nan nan 198 261 351 306 322 329 344 341 335 296 236 214 200 197 203 226 237 244 241 241 258 nan nan nan nan 277 278 274 275 268 268 268 270 268 250 258 264 260 263 261 246 248 225 289 310 322 307 347 347 8 99 150 159 141 128 158 129 117 117
nan nan nan nan nan nan nan nan nan nan nan nan nan nan nan nan nan nan nan nan nan nan nan nan 309 259 228 237 2 356 325 309 323 333 339 339 336 264 214 200 201 205 213 240 239 247 239 252 262 274 280 258 272 274 273 284 275 271 270 275 275 261 263 269 262 269 267 251 246 215 274 306 318 307 309 310 331 53 296 165 190 161 186 142 121 126
nan nan nan nan nan nan nan nan nan nan nan nan nan nan nan nan nan nan nan nan nan nan nan nan nan 250 249 240 299 344 349 317 320 328 330 332 346 324 214 200 208 217 215 222 242 245 241 250 252 263 270 260 265 273 264 278 276 273 274 271 275 268 259 260 258 271 263 259 246 210 242 262 294 310 305 280 291 82 298 263 216 195 194 135 118 133
nan nan nan nan nan nan nan nan nan nan nan nan nan nan nan nan nan nan nan nan nan nan nan nan nan 256 260 259 282 330 320 308 311 320 324 330 339 344 198 204 217 224 229 218 236 246 241 251 256 254 261 256 265 277 262 271 272 273 277 276 271 269 257 258 258 262 259 261 237 219 243 237 248 298 305 306 302 332 337 295 311 237 204 117 114 114
nan nan nan nan nan nan nan nan nan nan nan nan nan nan nan nan nan nan nan nan nan nan nan nan 248 249 267 263 260 273 297 301 313 314 318 328 326 321 321 320 255 254 239 224 218 242 239 247 257 256 255 255 263 272 266 273 272 271 276 278 274 276 269 255 257 254 262 263 241 229 246 236 236 244 264 293 292 312 291 303 314 358 110 51 94 117
nan nan nan nan nan nan nan nan nan nan nan nan nan nan nan nan nan nan nan nan nan nan nan 246 243 235 256 249 256 279 284 298 307 311 316 326 330 319 322 321 328 325 253 216 215 222 249 254 259 262 266 260 266 267 268 271 270 268 273 273 273 270 265 256 253 251 257 261 257 244 250 240 243 251 257 276 287 288 287 284 322 344 120 204 196 109
nan nan nan nan nan nan nan nan nan nan nan nan nan nan nan nan nan nan nan nan nan nan nan 264 266 262 262 259 256 282 286 286 299 310 318 319 329 334 330 327 323 322 288 211 215 219 227 260 267 265 273 269 270 265 260 275 264 264 267 269 275 271 273 268 257 256 251 260 261 257 258 246 250 252 261 250 264 260 263 270 289 281 239 227 194 184
nan nan nan nan nan nan nan nan nan nan nan nan nan nan nan nan nan nan nan nan nan nan nan 242 269 266 255 268 281 278 285 283 282 296 303 311 326 332 330 335 327 305 276 242 229 228 220 245 265 265 272 266 266 256 257 268 260 264 261 264 273 273 275 277 268 261 253 257 258 260 262 261 253 249 256 254 259 261 253 275 275 287 264 251 226 191
nan nan nan nan nan nan nan nan nan nan nan nan nan nan nan nan nan nan nan nan nan nan nan 206 225 240 236 228 247 268 262 277 279 284 292 299 299 291 298 317 323 313 287 258 245 234 228 231 260 264 268 264 261 253 257 262 260 268 264 264 263 262 265 270 274 267 265 264 261 267 262 258 255 249 252 252 266 262 265 256 262 262 263 262 245 230
nan nan nan nan nan nan nan nan nan nan nan nan nan nan nan nan nan nan nan nan nan nan nan 230 242 253 240 217 211 234 260 274 266 261 252 273 278 278 285 291 300 306 284 258 244 238 230 235 249 258 262 259 255 248 252 253 263 262 261 264 263 266 266 269 270 272 265 267 262 270 274 267 267 255 255 249 264 264 264 248 259 255 257 246 247 239
nan nan nan nan nan nan nan nan nan nan nan nan nan nan nan nan nan nan nan nan nan nan nan nan 244 246 238 219 214 213 221 230 229 232 239 242 254 264 275 273 268 271 269 260 246 237 225 222 220 234 251 255 255 249 252 252 256 261 260 262 261 265 266 266 266 268 263 267 260 271 276 270 270 255 253 246 259 255 253 247 247 247 256 257 252 251
nan nan nan nan nan nan nan nan nan nan nan nan nan nan nan nan nan nan nan nan nan nan nan nan 249 234 223 217 215 210 230 236 229 224 225 225 236 228 229 240 251 247 243 242 242 239 231 221 213 211 207 250 254 250 251 246 252 258 258 261 256 266 266 265 261 266 266 264 260 263 271 269 267 262 253 251 255 258 258 253 248 241 248 260 253 254
nan nan nan nan nan nan nan nan nan nan nan nan nan nan nan nan nan nan nan nan nan nan nan nan 248 240 227 217 217 219 227 229 236 229 234 231 224 225 224 225 219 226 227 228 242 249 244 235 230 229 210 212 248 252 251 245 242 247 253 254 255 264 265 264 252 266 269 261 262 262 267 262 261 267 257 255 251 261 261 261 256 250 243 248 250 253
nan nan nan nan nan nan nan nan nan nan nan nan nan nan nan nan nan nan nan nan nan 222 230 230 243 240 232 227 220 217 225 222 223 223 225 226 222 228 233 237 240 245 252 248 242 252 258 254 248 249 242 235 262 261 252 248 242 240 247 245 250 253 256 253 241 261 267 261 263 261 266 264 260 261 258 254 249 254 258 261 268 261 257 249 244 250
nan nan nan nan nan nan nan nan nan nan nan nan nan nan nan 197 197 189 nan nan 238 220 223 219 229 233 234 231 226 230 231 225 234 233 230 229 228 233 237 243 250 243 241 243 234 232 235 231 228 221 221 236 256 260 255 248 244 239 239 240 240 245 245 243 234 259 260 258 253 259 260 264 258 259 260 254 248 250 253 253 259 268 263 260 253 250
nan nan nan nan nan nan nan nan nan nan nan nan nan nan nan nan nan nan nan 227 238 230 223 223 243 235 225 222 226 227 229 231 246 246 233 227 225 222 223 224 229 234 239 248 258 257 256 233 239 218 224 232 243 246 245 239 240 239 237 237 236 239 245 239 229 237 250 249 250 253 257 259 257 258 256 252 248 251 251 255 253 264 270 264 257 253
nan nan nan nan nan nan 239 nan nan nan nan nan nan nan nan nan nan nan nan nan 222 228 220 223 240 241 231 223 218 217 233 237 230 223 227 226 218 217 216 223 233 236 240 237 236 231 224 224 219 226 227 229 234 236 234 231 230 228 226 232 235 237 240 240 234 229 230 242 241 242 246 246 245 243 245 251 248 247 247 248 253 255 265 269 268 263
nan nan nan nan nan nan nan nan nan nan nan nan nan nan nan nan nan nan nan 214 220 221 216 212 223 237 236 228 218 210 220 232 229 217 230 237 225 215 217 217 225 234 238 240 236 231 225 223 223 206 208 219 232 234 236 237 241 241 234 223 225 229 232 235 238 236 230 229 234 235 235 235 235 234 235 237 243 246 242 236 240 242 252 269 269 265
nan nan nan nan nan nan nan nan nan nan nan nan nan nan nan nan nan 202 207 210 222 222 226 224 221 233 229 219 219 209 211 225 229 226 234 236 232 228 218 220 218 221 227 230 237 237 237 231 226 214 210 206 211 220 220 219 222 229 233 235 232 231 230 232 234 239 237 236 234 226 217 217 228 236 235 234 234 234 240 240 240 243 242 241 245 252
nan nan nan nan nan nan nan nan nan nan nan nan nan nan nan nan 211 208 204 203 212 220 223 227 224 226 231 230 226 217 214 223 227 224 232 242 240 241 235 223 225 221 219 215 224 233 233 231 224 226 223 219 215 211 208 203 205 210 216 220 224 227 229 232 234 235 236 237 237 239 238 230 220 226 237 238 235 241 244 243 242 246 247 249 249 250
nan nan nan nan nan nan nan nan nan nan nan nan nan nan nan nan 212 212 207 204 211 217 223 227 225 222 220 224 243 239 229 224 218 216 214 235 240 245 247 244 237 234 231 225 218 220 233 230 218 219 228 235 228 224 220 216 214 209 206 212 215 219 224 230 233 234 236 239 240 234 227 228 227 225 238 247 243 241 244 244 244 247 249 251 253 253
nan nan nan nan nan nan nan nan nan nan nan nan nan nan nan 216 221 222 218 215 214 216 220 223 228 229 226 228 242 245 242 240 233 221 217 218 236 241 240 241 245 241 240 237 231 230 233 229 223 216 219 222 222 224 224 224 222 217 217 218 223 227 230 234 235 239 248 250 243 241 234 231 230 224 229 239 243 245 249 249 246 244 246 252 251 252
nan nan nan nan nan nan nan nan nan nan nan 231 233 nan 234 nan nan 224 218 220 220 219 221 224 228 230 232 233 239 246 249 243 238 235 230 228 236 240 239 241 245 245 242 240 238 232 232 227 223 220 221 223 220 222 225 226 223 220 221 221 219 220 221 223 226 231 240 252 249 244 237 244 244 241 240 240 241 245 249 249 249 248 247 251 251 249
nan nan nan nan nan nan nan nan nan nan nan 224 223 nan nan 238 240 231 225 222 222 220 222 225 228 233 237 239 239 243 246 244 238 nan 233 230 234 235 242 245 239 237 238 234 234 231 229 233 235 230 225 227 226 224 227 228 231 231 232 233 233 229 225 218 216 220 225 227 239 248 246 241 243 241 241 243 244 248 249 250 251 251 249 248 251 255
nan nan nan nan nan nan nan nan nan nan 210 224 220 nan nan nan nan 242 nan nan 215 220 222 225 228 232 234 235 236 240 245 243 237 233 nan 236 242 234 236 237 237 233 230 229 233 230 228 228 234 237 233 231 237 238 239 241 240 238 238 238 239 238 238 236 229 224 224 231 229 238 242 240 236 234 235 240 241 244 247 248 249 248 247 248 249 251
nan nan nan nan nan nan nan nan 232 229 nan 217 223 223 nan nan nan nan nan nan nan nan 221 226 231 236 236 238 236 237 238 241 239 233 226 nan nan 243 241 242 240 233 229 226 225 225 225 232 238 238 235 234 237 238 239 243 242 237 233 230 230 236 240 241 236 231 228 233 234 235 241 246 245 242 239 239 242 244 245 247 248 251 252 251 249 250
nan nan 265 nan nan nan nan nan nan nan 236 224 225 nan 218 nan nan 241 248 nan nan 221 229 231 232 236 239 242 247 244 238 242 nan 236 226 nan 236 244 243 245 245 242 234 229 nan nan 230 227 229 233 237 243 246 245 243 242 242 239 235 233 238 245 248 244 240 241 239 237 239 238 241 249 253 247 242 240 242 244 246 249 251 253 254 256 256 255
nan nan nan nan nan nan 229 nan nan nan 242 248 230 212 nan nan nan nan nan 238 nan 226 231 233 235 236 242 248 252 258 253 245 nan nan 233 231 nan nan nan 244 248 245 239 235 nan nan 238 237 236 238 235 233 234 234 239 243 245 245 246 249 254 257 255 252 249 248 250 248 246 248 248 248 249 246 244 245 245 247 252 256 258 256 258 260 257 255
nan 253 nan nan nan nan 243 nan 235 232 242 240 239 237 nan nan nan nan nan 246 nan 233 236 237 239 241 245 249 253 254 263 262 258 251 249 245 249 256 nan nan nan 247 244 239 239 nan nan nan nan nan 236 234 236 240 240 242 246 249 253 255 257 257 254 252 252 253 252 253 252 248 247 246 248 248 247 246 247 246 250 255 259 264 266 263 263 260
nan 238 246 nan nan nan nan 247 240 244 240 234 231 nan 233 238 nan nan nan nan 240 239 242 244 245 247 251 256 256 258 251 254 nan 257 254 252 nan nan 248 nan nan nan 248 244 239 nan nan nan nan nan nan nan 238 238 239 243 246 248 251 255 256 256 257 255 253 253 254 253 251 248 243 239 240 243 243 245 251 250 245 245 253 256 258 260 260 259
239 247 242 246 nan nan 253 254 253 nan nan nan 242 238 235 255 252 nan nan nan 255 252 250 248 251 251 253 254 257 257 259 nan nan nan nan nan nan nan nan nan nan nan nan nan 247 242 241 241 nan nan nan 241 239 nan 241 244 246 248 249 251 255 258 256 254 253 253 253 251 249 246 242 239 245 248 246 243 243 247 247 246 247 250 252 255 256 258
nan nan nan nan nan nan 260 262 264 261 246 231 244 249 237 260 266 nan 261 252 256 258 255 250 252 257 258 260 258 263 265 262 nan nan nan nan nan nan nan nan nan nan nan nan nan nan nan nan nan nan nan nan 243 243 nan nan 248 249 250 249 247 250 256 256 252 249 251 252 250 248 242 239 240 246 247 242 241 240 238 239 245 247 246 247 250 254
262 262 nan nan nan 265 260 265 272 274 264 248 256 270 271 271 273 262 260 260 259 260 258 257 252 257 262 265 266 265 264 263 nan nan nan nan nan nan nan nan nan nan nan nan nan nan nan nan nan nan nan nan nan nan nan 247 250 251 251 250 249 249 248 251 254 253 250 247 248 248 244 239 239 239 246 248 nan nan nan nan 238 244 243 246 252 256
271 278 271 267 249 259 264 269 272 276 268 258 259 264 267 265 262 262 262 262 262 262 262 261 259 259 265 265 269 271 272 268 nan nan nan nan nan nan nan nan nan nan nan nan nan nan nan nan nan nan nan nan nan nan nan nan nan nan 250 249 249 248 248 248 249 nan 251 251 248 248 246 244 241 nan nan 246 243 nan nan 237 238 241 240 nan 244 254
286 280 272 264 261 261 257 267 278 274 275 270 262 259 261 261 260 259 259 260 259 262 262 264 265 265 266 270 272 272 274 278 nan nan nan nan nan nan nan nan nan nan nan nan nan nan nan nan nan nan nan nan nan nan nan nan nan nan nan nan nan nan 248 248 249 249 247 249 249 249 248 246 nan nan nan nan nan nan 240 241 238 237 238 242 245 244
259 259 266 269 269 266 nan 267 270 268 265 264 264 265 264 263 262 265 265 264 265 262 261 262 266 268 268 267 272 275 276 274 270 269 nan nan nan nan nan nan nan nan nan nan nan nan nan nan nan nan nan nan nan nan nan nan nan nan nan nan nan nan nan nan nan nan nan 246 247 244 246 250 247 243 242 nan nan nan nan 244 245 241 239 240 237 241
260 265 265 269 275 281 288 269 272 272 274 277 277 277 273 268 264 263 270 271 273 272 270 268 269 270 272 273 276 281 281 278 278 274 nan nan nan nan nan nan nan nan nan nan nan nan nan nan nan nan nan nan nan nan nan nan nan nan nan nan nan nan nan nan nan nan nan nan nan nan nan nan nan nan 244 242 nan nan nan nan nan nan nan nan nan 239
276 nan 276 288 283 282 280 276 278 269 266 272 273 272 272 273 272 265 264 267 267 273 272 268 267 273 276 279 280 280 282 283 282 281 277 nan nan nan nan nan nan nan nan nan nan nan nan nan nan nan nan nan nan nan nan nan nan nan nan nan nan nan nan nan nan nan nan nan nan nan nan nan nan nan nan nan nan nan nan nan nan nan nan nan nan 243
nan 265 278 278 283 296 296 291 282 284 285 281 276 271 275 275 277 276 270 271 269 271 276 275 271 268 273 276 282 283 284 285 286 287 287 284 nan nan nan nan nan nan nan nan nan nan nan nan nan nan nan nan nan nan nan nan nan nan nan nan nan nan nan nan nan nan nan nan nan nan nan nan nan nan nan nan nan nan nan nan nan nan nan nan nan nan
270 275 275 278 285 294 286 286 282 286 286 291 289 288 282 283 280 278 274 272 275 275 275 281 280 276 278 280 278 281 284 286 286 284 279 275 280 nan nan nan nan nan nan nan nan nan nan nan nan nan nan nan nan nan nan nan nan nan nan nan nan nan nan nan nan nan nan nan nan nan nan nan nan nan nan nan nan nan nan nan nan nan nan nan nan nan